Flag for Germany Weather past 2 weeks in Witzenhausen, Hesse, Germany

Now
57 °F

Passing clouds.


Feels Like: 55 °F
Forecast: 41 / 48 °F
Wind: 12 mph from South

Location: Kassel / Calden


UV Index: 3 (Moderate)

Visibility: N/A


Pressure: 30.09 "Hg

Humidity: 39%

Dew point: 32 °F

Location of WitzenhausenLocation

Historic Weather in Witzenhausen

°F

Witzenhausen temperature yesterday

Maximum temperature yesterday: 55 °F (at 4:20 PM)
Minimum temperature yesterday: 30 °F (at 5:50 AM)
Average temperature yesterday: 46 °F

Past Weeks' High & Low Weather Summary

 TemperatureHumidityPressure
High72 °F (Apr 3, 3:20 PM)100% (Apr 5, 6:50 AM)30.45 "Hg (Apr 5, 6:50 AM)
Low30 °F (Apr 16, 5:50 AM)33% (Apr 3, 5:20 PM)29.65 "Hg (Apr 3, 5:50 AM)
Average52 °F70%30.03 "Hg
* Reported Apr 2 2:20 PM — Apr 17 2:50 PM, Witzenhausen, Weather by CustomWeather, © 2014

Note: Actual official high and low records may vary slightly from our data, if they occured in-between our weather recording intervals... More about our weather records

Advertising

Historic Weather Conditions — Data for Previous 24 hours

 ConditionsComfort  
Time TempWeatherWind HumidityBarometerVisibility
2:50 PM
Apr 17
57 °FPassing clouds.12 mph39%30.09 "HgN/A
2:20 PM55 °FPassing clouds.12 mph41%30.12 "HgN/A
1:50 PM55 °FPassing clouds.12 mph36%30.15 "HgN/A
1:20 PM54 °FSunny.13 mph38%30.15 "Hg10 mi
12:50 PM54 °FPassing clouds.8 mph41%30.18 "HgN/A
12:20 PM52 °FPassing clouds.10 mph41%30.21 "HgN/A
11:50 AM50 °FPassing clouds.9 mph47%30.21 "HgN/A
11:20 AM50 °FSunny.12 mph47%30.24 "Hg10 mi
10:50 AM50 °FSunny.13 mph43%30.24 "Hg10 mi
10:20 AM48 °FClear.12 mph46%30.27 "HgN/A
9:50 AM48 °FPassing clouds.8 mph50%30.27 "HgN/A
9:20 AM45 °FSunny.7 mph57%30.27 "Hg10 mi
8:50 AM43 °FSunny.7 mph61%30.27 "Hg10 mi
8:20 AM41 °FSunny.7 mph66%30.27 "Hg10 mi
7:50 AM37 °FSunny.6 mph75%30.30 "Hg10 mi
7:20 AM36 °FClear.2 mph75%30.30 "Hg10 mi
6:50 AM34 °FClear.3 mph75%30.30 "Hg10 mi
6:20 AM34 °FClear.3 mph75%30.30 "Hg10 mi
5:50 AM36 °FClear.2 mph70%30.30 "Hg10 mi
9:50 PM
Apr 16
43 °FClear.7 mph66%30.36 "Hg10 mi
9:20 PM43 °FClear.6 mph66%30.39 "Hg10 mi
8:50 PM46 °FSunny.3 mph57%30.36 "Hg10 mi
8:20 PM50 °FSunny.3 mph50%30.36 "Hg10 mi
7:50 PM52 °FSunny.6 mph47%30.36 "Hg10 mi
7:20 PM54 °FSunny.6 mph38%30.36 "Hg10 mi
6:50 PM54 °FSunny.6 mph38%30.36 "Hg10 mi
6:20 PM54 °FSunny.6 mph38%30.36 "Hg10 mi
5:50 PM55 °FPassing clouds.6 mph36%30.39 "HgN/A
5:20 PM54 °FSunny.2 mph35%30.39 "Hg10 mi
4:50 PM54 °FSunny.8 mph38%30.39 "Hg10 mi
4:20 PM55 °FPassing clouds.5 mph38%30.39 "HgN/A
3:50 PM54 °FPassing clouds.6 mph41%30.39 "HgN/A
3:20 PM52 °FPassing clouds.6 mph47%30.42 "HgN/A
Weather by CustomWeather, © 2014

See weather overview